Home > Weather > Bernau bei Berlin > Past weeks

Flag for Germany Past Weather in Bernau bei Berlin, Brandenburg, Germany — Yesterday and Last 2 Weeks

Now
79 °F

Partly sunny.


Feels Like: 79 °F
Forecast: 57 / 74 °F
Wind: 13 mph from Southwest

Location: Berlin-Tegel

Current Time: Jul 1, 2016 at 1:41:16 PM

Latest Report: Jul 1, 2016 at 12:50 PM


Visibility: N/A

Pressure: 29.95 "Hg

Humidity: 45%

Dew Point: 55 °F

Location of Bernau bei BerlinLocation

Past Weather in Bernau bei Berlin — Graph

°F

Bernau bei Berlin Temperature Yesterday

Maximum temperature yesterday: 77 °F (at 12:50 PM)
Minimum temperature yesterday: 55 °F (at 4:20 AM)
Average temperature yesterday: 68 °F

High & Low Weather Summary for the Past Weeks

 TemperatureHumidityPressure
High95 °F (Jun 24, 3:50 PM)94% (Jun 17, 4:20 AM)30.24 "Hg (Jun 17, 4:20 AM)
Low48 °F (Jun 20, 4:50 AM)23% (Jun 24, 4:20 PM)29.50 "Hg (Jun 17, 4:50 AM)
Average69 °F62%29.98 "Hg
* Reported Jun 16 12:20 PM — Jul 1 12:20 PM, Bernau bei Berlin, Weather by CustomWeather, © 2016

Note: Actual official high and low records may vary slightly from our data, if they occured in-between our weather recording intervals... More about our weather records

Advertising

Bernau bei Berlin Weather History for the Previous 24 Hours

Scroll right to see more
 ConditionsComfort  
Time TempWeatherWind HumidityBarometerVisibility
12:20 PM
Fri, Jul 1
77 °FPartly sunny.14 mph44%29.95 "HgN/A
11:50 AM77 °FPartly sunny.13 mph47%29.95 "HgN/A
11:20 AM75 °FPartly sunny.12 mph47%29.95 "HgN/A
10:50 AM75 °FPartly sunny.12 mph47%29.95 "HgN/A
10:20 AM75 °FPartly sunny.12 mph54%29.95 "HgN/A
9:50 AM73 °FPartly sunny.14 mph57%29.95 "HgN/A
9:20 AM73 °FPartly sunny.9 mph57%29.95 "HgN/A
8:50 AM72 °FPassing clouds.10 mph61%29.95 "HgN/A
8:20 AM70 °FSunny.12 mph64%29.95 "Hg10 mi
7:50 AM70 °FSunny.10 mph64%29.95 "Hg10 mi
7:20 AM68 °FSunny.10 mph69%29.95 "Hg10 mi
6:50 AM66 °FPassing clouds.9 mph73%29.95 "HgN/A
6:20 AM64 °FSunny.7 mph78%29.95 "Hg10 mi
5:50 AM64 °FSunny.7 mph78%29.95 "Hg10 mi
5:20 AM63 °FClear.6 mph83%29.95 "Hg10 mi
4:50 AM61 °FClear.3 mph83%29.92 "Hg10 mi
4:20 AM61 °FClear.5 mph88%29.92 "Hg10 mi
3:50 AM61 °FClear.3 mph88%29.92 "Hg10 mi
3:20 AM63 °FPassing clouds.1 mph83%29.92 "HgN/A
2:50 AM63 °FPassing clouds.2 mph83%29.92 "HgN/A
2:20 AM63 °FClear.1 mph83%29.95 "Hg10 mi
1:50 AM64 °FClear.1 mph78%29.95 "Hg10 mi
1:20 AM64 °FClear.1 mph78%29.95 "Hg10 mi
12:50 AM64 °FClear.1 mph73%29.95 "Hg10 mi
12:20 AM64 °FClear.1 mph78%29.95 "Hg10 mi
11:50 PM
Thu, Jun 30
64 °FClear.1 mph78%29.95 "Hg10 mi
11:20 PM64 °FClear.1 mph78%29.95 "Hg10 mi
10:50 PM66 °FClear.2 mph73%29.95 "Hg10 mi
10:20 PM68 °FSunny.2 mph64%29.95 "Hg10 mi
9:50 PM70 °FSunny.3 mph60%29.95 "Hg10 mi
9:20 PM70 °FPassing clouds.3 mph60%29.92 "HgN/A
8:50 PM72 °FSunny.2 mph57%29.92 "Hg10 mi
8:20 PM70 °FPartly sunny.3 mph60%29.92 "HgN/A
7:50 PM72 °FScattered clouds.5 mph53%29.92 "HgN/A
7:20 PM72 °FBroken clouds.9 mph57%29.92 "HgN/A
6:50 PM73 °FBroken clouds.8 mph47%29.89 "HgN/A
6:20 PM75 °FPassing clouds.10 mph44%29.89 "HgN/A
5:50 PM75 °FSunny.14 mph44%29.89 "Hg10 mi
5:20 PM75 °FPassing clouds.13 mph44%29.89 "HgN/A
4:50 PM77 °FPartly sunny.13 mph42%29.89 "HgN/A
4:20 PM75 °FPartly sunny.13 mph44%29.89 "HgN/A
3:50 PM77 °FPassing clouds.10 mph44%29.89 "HgN/A
3:20 PM77 °FPassing clouds.12 mph44%29.89 "HgN/A
2:50 PM75 °FPassing clouds.10 mph44%29.89 "HgN/A
2:20 PM73 °FPassing clouds.13 mph47%29.92 "HgN/A
1:50 PM73 °FPassing clouds.13 mph41%29.89 "HgN/A
1:20 PM77 °FPassing clouds.13 mph36%29.89 "HgN/A
Weather by CustomWeather, © 2016

See weather overviewHow to use our weather pages